Time,TemperatureF,DewpointF,PressureIn,WindDirection,WindDirectionDegrees,WindSpeedMPH,WindSpeedGustMPH,Humidity,HourlyPrecipIn,Conditions,Clouds,dailyrainin,SoftwareType,DateUTC
2013-02-18 00:00:00,26.5,20.0,29.86,ESE,113,3.0,4.0,76,0.00,,,0.00,Wunderground v.1.15,2013-02-18 06:00:00,
2013-02-18 00:10:00,26.6,20.1,29.85,ESE,116,3.0,5.0,76,0.00,,,0.00,Wunderground v.1.15,2013-02-18 06:10:00,
2013-02-18 00:19:00,26.8,20.2,29.85,ESE,120,3.0,3.0,76,0.00,,,0.00,Wunderground v.1.15,2013-02-18 06:19:00,
2013-02-18 00:24:00,26.8,20.2,29.85,ESE,115,3.0,3.0,76,0.00,,,0.00,Wunderground v.1.15,2013-02-18 06:24:00,
2013-02-18 00:29:00,26.8,20.2,29.85,SE,134,3.0,3.0,76,0.00,,,0.00,Wunderground v.1.15,2013-02-18 06:29:00,
2013-02-18 00:34:00,26.8,20.6,29.85,SSE,160,2.0,5.0,77,0.00,,,0.00,Wunderground v.1.15,2013-02-18 06:34:00,
2013-02-18 00:39:00,26.9,20.7,29.85,East,91,2.0,2.0,77,0.00,,,0.00,Wunderground v.1.15,2013-02-18 06:39:00,
2013-02-18 00:49:00,27.1,20.8,29.84,NNE,22,3.0,3.0,77,0.00,,,0.00,Wunderground v.1.15,2013-02-18 06:49:00,
2013-02-18 00:54:00,27.3,20.7,29.83,ESE,122,3.0,5.0,76,0.00,,,0.00,Wunderground v.1.15,2013-02-18 06:54:00,
2013-02-18 01:00:00,27.4,20.8,29.83,NNW,335,3.0,3.0,76,0.00,,,0.00,Wunderground v.1.15,2013-02-18 07:00:00,
2013-02-18 01:09:00,27.3,21.0,29.83,NW,319,3.0,3.0,77,0.00,,,0.00,Wunderground v.1.15,2013-02-18 07:09:00,
2013-02-18 01:15:00,27.3,21.0,29.82,ESE,108,3.0,3.0,77,0.00,,,0.00,Wunderground v.1.15,2013-02-18 07:15:00,
2013-02-18 01:20:00,27.4,21.1,29.82,ESE,103,3.0,6.0,77,0.00,,,0.00,Wunderground v.1.15,2013-02-18 07:20:00,
2013-02-18 01:29:00,27.7,21.1,29.81,East,99,3.0,4.0,76,0.00,,,0.00,Wunderground v.1.15,2013-02-18 07:29:00,
2013-02-18 01:34:00,27.8,21.2,29.81,South,186,3.0,4.0,76,0.00,,,0.00,Wunderground v.1.15,2013-02-18 07:34:00,
2013-02-18 01:39:00,27.8,21.2,29.81,East,94,3.0,3.0,76,0.00,,,0.00,Wunderground v.1.15,2013-02-18 07:39:00,
2013-02-18 01:45:00,27.9,21.3,29.80,East,96,3.0,3.0,76,0.00,,,0.00,Wunderground v.1.15,2013-02-18 07:45:00,
2013-02-18 01:54:00,27.8,21.2,29.79,ESE,103,3.0,4.0,76,0.00,,,0.00,Wunderground v.1.15,2013-02-18 07:54:00,
2013-02-18 02:04:00,27.8,21.2,29.79,ESE,111,4.0,5.0,76,0.00,,,0.00,Wunderground v.1.15,2013-02-18 08:04:00,
2013-02-18 02:10:00,27.8,21.2,29.78,ESE,108,4.0,4.0,76,0.00,,,0.00,Wunderground v.1.15,2013-02-18 08:10:00,
2013-02-18 02:19:00,27.8,21.2,29.78,ENE,71,4.0,6.0,76,0.00,,,0.00,Wunderground v.1.15,2013-02-18 08:19:00,
2013-02-18 02:25:00,27.8,21.2,29.77,East,86,4.0,6.0,76,0.00,,,0.00,Wunderground v.1.15,2013-02-18 08:25:00,
2013-02-18 02:34:00,28.0,21.7,29.77,ESE,113,4.0,6.0,77,0.00,,,0.00,Wunderground v.1.15,2013-02-18 08:34:00,
2013-02-18 02:44:00,28.0,21.4,29.76,SE,131,5.0,5.0,76,0.00,,,0.00,Wunderground v.1.15,2013-02-18 08:44:00,
2013-02-18 02:55:00,27.9,21.3,29.75,SSE,156,3.0,4.0,76,0.00,,,0.00,Wunderground v.1.15,2013-02-18 08:55:00,
2013-02-18 03:04:00,28.0,21.7,29.74,ENE,75,4.0,6.0,77,0.00,,,0.00,Wunderground v.1.15,2013-02-18 09:04:00,
2013-02-18 03:14:00,27.9,21.6,29.73,SE,140,3.0,4.0,77,0.00,,,0.00,Wunderground v.1.15,2013-02-18 09:14:00,
2013-02-18 03:25:00,27.8,21.5,29.73,ESE,103,2.0,3.0,77,0.00,,,0.00,Wunderground v.1.15,2013-02-18 09:25:00,
2013-02-18 03:34:00,27.9,21.6,29.72,SSE,166,2.0,3.0,77,0.00,,,0.00,Wunderground v.1.15,2013-02-18 09:34:00,
2013-02-18 03:44:00,28.1,21.8,29.72,ESE,122,3.0,9.0,77,0.00,,,0.00,Wunderground v.1.15,2013-02-18 09:44:00,
2013-02-18 03:49:00,28.2,21.9,29.72,East,97,3.0,3.0,77,0.00,,,0.00,Wunderground v.1.15,2013-02-18 09:49:00,
2013-02-18 03:54:00,28.0,21.7,29.71,East,100,3.0,3.0,77,0.00,,,0.00,Wunderground v.1.15,2013-02-18 09:54:00,
2013-02-18 04:05:00,28.2,22.2,29.70,East,96,4.0,4.0,78,0.00,,,0.00,Wunderground v.1.15,2013-02-18 10:05:00,
2013-02-18 04:14:00,28.3,22.3,29.70,East,101,3.0,3.0,78,0.00,,,0.00,Wunderground v.1.15,2013-02-18 10:14:00,
2013-02-18 04:24:00,28.5,22.5,29.69,ESE,110,3.0,3.0,78,0.00,,,0.00,Wunderground v.1.15,2013-02-18 10:24:00,
2013-02-18 04:30:00,28.6,22.6,29.69,ENE,65,3.0,3.0,78,0.00,,,0.00,Wunderground v.1.15,2013-02-18 10:30:00,
2013-02-18 04:39:00,28.8,22.8,29.69,East,93,3.0,3.0,78,0.00,,,0.00,Wunderground v.1.15,2013-02-18 10:39:00,
2013-02-18 04:44:00,28.8,22.8,29.69,ESE,107,2.0,3.0,78,0.00,,,0.00,Wunderground v.1.15,2013-02-18 10:44:00,
2013-02-18 04:54:00,28.9,22.9,29.69,SW,235,2.0,3.0,78,0.00,,,0.00,Wunderground v.1.15,2013-02-18 10:54:00,
2013-02-18 04:59:00,28.9,22.9,29.68,SE,131,2.0,3.0,78,0.00,,,0.00,Wunderground v.1.15,2013-02-18 10:59:00,
2013-02-18 05:09:00,28.9,22.9,29.68,NE,50,2.0,2.0,78,0.00,,,0.00,Wunderground v.1.15,2013-02-18 11:09:00,
2013-02-18 05:14:00,28.9,23.2,29.68,ESE,105,2.0,2.0,79,0.00,,,0.00,Wunderground v.1.15,2013-02-18 11:14:00,
2013-02-18 05:19:00,28.9,22.9,29.68,East,86,1.0,3.0,78,0.00,,,0.00,Wunderground v.1.15,2013-02-18 11:19:00,
2013-02-18 05:24:00,29.0,23.3,29.67,ENE,77,1.0,3.0,79,0.00,,,0.00,Wunderground v.1.15,2013-02-18 11:24:00,
2013-02-18 05:34:00,29.2,23.2,29.67,ENE,71,2.0,3.0,78,0.00,,,0.00,Wunderground v.1.15,2013-02-18 11:34:00,
2013-02-18 05:39:00,29.1,23.4,29.67,SSW,193,1.0,1.0,79,0.00,,,0.00,Wunderground v.1.15,2013-02-18 11:39:00,
2013-02-18 05:44:00,29.2,23.5,29.67,ENE,68,2.0,2.0,79,0.00,,,0.00,Wunderground v.1.15,2013-02-18 11:44:00,
2013-02-18 05:54:00,29.1,23.4,29.67,ESE,103,1.0,2.0,79,0.00,,,0.00,Wunderground v.1.15,2013-02-18 11:54:00,
2013-02-18 05:59:00,29.1,23.4,29.67,ESE,108,2.0,2.0,79,0.00,,,0.00,Wunderground v.1.15,2013-02-18 11:59:00,
2013-02-18 06:09:00,29.0,23.3,29.66,East,89,2.0,2.0,79,0.00,,,0.00,Wunderground v.1.15,2013-02-18 12:09:00,
2013-02-18 06:19:00,28.9,23.2,29.66,East,101,1.0,1.0,79,0.00,,,0.00,Wunderground v.1.15,2013-02-18 12:19:00,
2013-02-18 06:24:00,28.9,23.5,29.66,ENE,78,1.0,2.0,80,0.00,,,0.00,Wunderground v.1.15,2013-02-18 12:24:00,
2013-02-18 06:29:00,29.0,23.6,29.65,ENE,72,1.0,6.0,80,0.00,,,0.00,Wunderground v.1.15,2013-02-18 12:29:00,
2013-02-18 06:39:00,29.2,23.5,29.65,ENE,71,2.0,2.0,79,0.00,,,0.00,Wunderground v.1.15,2013-02-18 12:39:00,
2013-02-18 06:49:00,29.1,23.4,29.65,SSE,157,2.0,2.0,79,0.00,,,0.00,Wunderground v.1.15,2013-02-18 12:49:00,
2013-02-18 06:54:00,29.0,23.3,29.65,SSE,156,2.0,2.0,79,0.00,,,0.00,Wunderground v.1.15,2013-02-18 12:54:00,
2013-02-18 06:59:00,28.8,23.4,29.65,WNW,303,1.0,1.0,80,0.00,,,0.00,Wunderground v.1.15,2013-02-18 12:59:00,
2013-02-18 07:09:00,28.7,23.3,29.64,East,92,1.0,1.0,80,0.00,,,0.00,Wunderground v.1.15,2013-02-18 13:09:00,
2013-02-18 07:19:00,28.7,23.6,29.64,ESE,108,1.0,1.0,81,0.00,,,0.00,Wunderground v.1.15,2013-02-18 13:19:00,
2013-02-18 07:29:00,29.0,23.9,29.64,East,89,2.0,2.0,81,0.00,,,0.00,Wunderground v.1.15,2013-02-18 13:29:00,
2013-02-18 07:34:00,29.1,23.7,29.64,SE,134,2.0,2.0,80,0.00,,,0.00,Wunderground v.1.15,2013-02-18 13:34:00,
2013-02-18 07:39:00,29.2,23.8,29.64,ENE,57,1.0,1.0,80,0.00,,,0.00,Wunderground v.1.15,2013-02-18 13:39:00,
2013-02-18 07:48:00,29.5,24.1,29.64,SSW,200,1.0,1.0,80,0.00,,,0.00,Wunderground v.1.15,2013-02-18 13:48:00,
2013-02-18 07:53:00,29.7,24.3,29.64,SE,128,1.0,5.0,80,0.00,,,0.00,Wunderground v.1.15,2013-02-18 13:53:00,
2013-02-18 07:59:00,29.9,24.5,29.64,ESE,122,2.0,2.0,80,0.00,,,0.00,Wunderground v.1.15,2013-02-18 13:59:00,
2013-02-18 08:09:00,30.1,24.7,29.64,East,79,1.0,2.0,80,0.00,,,0.00,Wunderground v.1.15,2013-02-18 14:09:00,
2013-02-18 08:19:00,30.4,24.7,29.63,East,85,1.0,3.0,79,0.00,,,0.00,Wunderground v.1.15,2013-02-18 14:19:00,
2013-02-18 08:29:00,30.8,25.1,29.63,ESE,104,1.0,1.0,79,0.00,,,0.00,Wunderground v.1.15,2013-02-18 14:29:00,
2013-02-18 08:38:00,31.3,25.2,29.62,NE,44,0.0,0.0,78,0.00,,,0.00,Wunderground v.1.15,2013-02-18 14:38:00,
2013-02-18 08:48:00,31.6,25.5,29.62,NE,41,0.0,1.0,78,0.00,,,0.00,Wunderground v.1.15,2013-02-18 14:48:00,
2013-02-18 08:54:00,31.8,25.7,29.62,ESE,122,1.0,1.0,78,0.00,,,0.00,Wunderground v.1.15,2013-02-18 14:54:00,
2013-02-18 08:59:00,32.1,26.0,29.62,ESE,113,1.0,1.0,78,0.00,,,0.00,Wunderground v.1.15,2013-02-18 14:59:00,
2013-02-18 09:08:00,32.8,26.7,29.61,ESE,117,2.0,2.0,78,0.00,,,0.00,Wunderground v.1.15,2013-02-18 15:08:00,
2013-02-18 09:13:00,33.3,26.9,29.61,ENE,74,1.0,2.0,77,0.00,,,0.00,Wunderground v.1.15,2013-02-18 15:13:00,
2013-02-18 09:18:00,34.3,27.5,29.60,SW,232,1.0,1.0,76,0.00,,,0.00,Wunderground v.1.15,2013-02-18 15:18:00,
2013-02-18 09:28:00,35.5,28.0,29.60,East,101,1.0,2.0,74,0.00,,,0.00,Wunderground v.1.15,2013-02-18 15:28:00,
2013-02-18 09:34:00,35.7,27.9,29.60,SSE,166,2.0,4.0,73,0.00,,,0.00,Wunderground v.1.15,2013-02-18 15:34:00,
2013-02-18 09:43:00,35.8,28.0,29.59,SSW,207,2.0,2.0,73,0.00,,,0.00,Wunderground v.1.15,2013-02-18 15:43:00,
2013-02-18 09:48:00,36.2,28.4,29.59,SE,127,3.0,4.0,73,0.00,,,0.00,Wunderground v.1.15,2013-02-18 15:48:00,
2013-02-18 09:53:00,36.2,28.4,29.59,SE,141,4.0,4.0,73,0.00,,,0.00,Wunderground v.1.15,2013-02-18 15:53:00,
2013-02-18 09:58:00,36.4,28.6,29.59,ESE,108,4.0,4.0,73,0.00,,,0.00,Wunderground v.1.15,2013-02-18 15:58:00,
2013-02-18 10:03:00,36.9,28.7,29.59,WSW,243,2.0,4.0,72,0.00,,,0.00,Wunderground v.1.15,2013-02-18 16:03:00,
2013-02-18 10:13:00,37.8,29.6,29.59,East,98,2.0,6.0,72,0.00,,,0.00,Wunderground v.1.15,2013-02-18 16:13:00,
2013-02-18 10:23:00,38.5,29.6,29.59,SE,138,3.0,3.0,70,0.00,,,0.00,Wunderground v.1.15,2013-02-18 16:23:00,
2013-02-18 10:28:00,39.0,30.0,29.58,NE,43,2.0,2.0,70,0.00,,,0.00,Wunderground v.1.15,2013-02-18 16:28:00,
2013-02-18 10:33:00,39.5,30.2,29.59,SW,230,2.0,2.0,69,0.00,,,0.00,Wunderground v.1.15,2013-02-18 16:33:00,
2013-02-18 10:43:00,39.7,30.4,29.58,SSW,201,2.0,7.0,69,0.00,,,0.00,Wunderground v.1.15,2013-02-18 16:43:00,
2013-02-18 10:53:00,39.9,30.5,29.58,SW,235,3.0,3.0,69,0.00,,,0.00,Wunderground v.1.15,2013-02-18 16:53:00,
2013-02-18 10:58:00,39.9,30.5,29.58,WSW,243,2.0,3.0,69,0.00,,,0.00,Wunderground v.1.15,2013-02-18 16:58:00,
2013-02-18 11:08:00,40.0,30.6,29.58,SW,233,2.0,2.0,69,0.00,,,0.00,Wunderground v.1.15,2013-02-18 17:08:00,
2013-02-18 11:13:00,40.2,30.8,29.57,SW,224,3.0,3.0,69,0.00,,,0.00,Wunderground v.1.15,2013-02-18 17:13:00,
2013-02-18 11:18:00,40.6,31.2,29.57,SSE,165,2.0,2.0,69,0.00,,,0.00,Wunderground v.1.15,2013-02-18 17:18:00,
2013-02-18 11:24:00,41.2,31.4,29.56,SW,218,1.0,2.0,68,0.00,,,0.00,Wunderground v.1.15,2013-02-18 17:24:00,
2013-02-18 11:34:00,41.8,31.6,29.56,ENE,78,2.0,2.0,67,0.00,,,0.00,Wunderground v.1.15,2013-02-18 17:34:00,
2013-02-18 11:39:00,42.2,31.6,29.55,SE,125,2.0,3.0,66,0.00,,,0.00,Wunderground v.1.15,2013-02-18 17:39:00,
2013-02-18 11:49:00,42.7,32.5,29.55,SE,139,2.0,2.0,67,0.00,,,0.00,Wunderground v.1.15,2013-02-18 17:49:00,
2013-02-18 11:54:00,43.4,32.8,29.54,SE,133,2.0,2.0,66,0.00,,,0.00,Wunderground v.1.15,2013-02-18 17:54:00,
2013-02-18 12:04:00,44.4,33.0,29.54,ESE,120,1.0,3.0,64,0.00,,,0.00,Wunderground v.1.15,2013-02-18 18:04:00,
2013-02-18 12:09:00,44.4,33.0,29.54,ESE,113,2.0,3.0,64,0.00,,,0.00,Wunderground v.1.15,2013-02-18 18:09:00,
2013-02-18 12:14:00,44.2,33.2,29.53,SE,124,2.0,2.0,65,0.00,,,0.00,Wunderground v.1.15,2013-02-18 18:14:00,
2013-02-18 12:24:00,44.9,33.5,29.53,SE,136,1.0,2.0,64,0.00,,,0.00,Wunderground v.1.15,2013-02-18 18:24:00,
2013-02-18 12:34:00,45.3,33.4,29.53,WSW,253,1.0,2.0,63,0.00,,,0.00,Wunderground v.1.15,2013-02-18 18:34:00,
2013-02-18 12:39:00,45.2,33.7,29.52,NE,41,2.0,2.0,64,0.00,,,0.00,Wunderground v.1.15,2013-02-18 18:39:00,
2013-02-18 12:44:00,45.2,33.7,29.52,West,266,2.0,2.0,64,0.00,,,0.00,Wunderground v.1.15,2013-02-18 18:44:00,
2013-02-18 12:54:00,45.8,34.3,29.51,SE,127,2.0,2.0,64,0.00,,,0.00,Wunderground v.1.15,2013-02-18 18:54:00,
2013-02-18 12:59:00,45.2,34.1,29.51,SE,143,2.0,2.0,65,0.00,,,0.00,Wunderground v.1.15,2013-02-18 18:59:00,
2013-02-18 13:09:00,45.8,34.3,29.51,ESE,108,2.0,2.0,64,0.00,,,0.00,Wunderground v.1.15,2013-02-18 19:09:00,
2013-02-18 13:14:00,46.0,34.5,29.50,ESE,110,2.0,2.0,64,0.00,,,0.00,Wunderground v.1.15,2013-02-18 19:14:00,
2013-02-18 13:24:00,46.5,35.0,29.50,SSW,193,1.0,4.0,64,0.00,,,0.00,Wunderground v.1.15,2013-02-18 19:24:00,
2013-02-18 13:34:00,46.3,34.4,29.50,South,186,2.0,3.0,63,0.00,,,0.00,Wunderground v.1.15,2013-02-18 19:34:00,
2013-02-18 13:43:00,46.3,35.2,29.50,ESE,115,2.0,3.0,65,0.00,,,0.00,Wunderground v.1.15,2013-02-18 19:43:00,
2013-02-18 13:54:00,46.1,34.6,29.50,SSE,159,2.0,2.0,64,0.00,,,0.00,Wunderground v.1.15,2013-02-18 19:54:00,
2013-02-18 13:59:00,46.1,35.0,29.50,SW,229,2.0,2.0,65,0.00,,,0.00,Wunderground v.1.15,2013-02-18 19:59:00,
2013-02-18 14:09:00,45.9,35.2,29.50,SW,214,1.0,1.0,66,0.00,,,0.00,Wunderground v.1.15,2013-02-18 20:09:00,
2013-02-18 14:18:00,45.5,34.8,29.50,WSW,250,0.0,3.0,66,0.00,,,0.00,Wunderground v.1.15,2013-02-18 20:18:00,
2013-02-18 14:23:00,45.0,34.7,29.50,SW,214,1.0,3.0,67,0.00,,,0.00,Wunderground v.1.15,2013-02-18 20:23:00,
2013-02-18 14:28:00,44.8,34.9,29.50,ESE,114,1.0,1.0,68,0.00,,,0.00,Wunderground v.1.15,2013-02-18 20:28:00,
2013-02-18 14:34:00,44.5,35.0,29.49,NNW,340,0.0,1.0,69,0.00,,,0.00,Wunderground v.1.15,2013-02-18 20:34:00,
2013-02-18 14:43:00,44.1,34.9,29.48,NNE,33,0.0,1.0,70,0.00,,,0.00,Wunderground v.1.15,2013-02-18 20:43:00,
2013-02-18 14:48:00,44.0,34.8,29.47,East,86,0.0,2.0,70,0.00,,,0.00,Wunderground v.1.15,2013-02-18 20:48:00,
2013-02-18 15:03:00,43.8,35.0,29.47,ESE,122,1.0,2.0,71,0.00,,,0.00,Wunderground v.1.15,2013-02-18 21:03:00,
2013-02-18 15:08:00,43.7,34.9,29.47,East,101,1.0,1.0,71,0.00,,,0.00,Wunderground v.1.15,2013-02-18 21:08:00,
2013-02-18 15:13:00,43.9,35.1,29.47,ESE,104,0.0,1.0,71,0.00,,,0.00,Wunderground v.1.15,2013-02-18 21:13:00,
2013-02-18 15:18:00,44.2,35.4,29.47,WNW,290,0.0,0.0,71,0.00,,,0.00,Wunderground v.1.15,2013-02-18 21:18:00,
2013-02-18 15:24:00,44.4,35.6,29.47,SW,226,0.0,0.0,71,0.00,,,0.00,Wunderground v.1.15,2013-02-18 21:24:00,
2013-02-18 15:33:00,44.4,35.6,29.47,ESE,114,0.0,1.0,71,0.00,,,0.00,Wunderground v.1.15,2013-02-18 21:33:00,
2013-02-18 15:38:00,44.2,35.4,29.47,SW,215,1.0,1.0,71,0.00,,,0.00,Wunderground v.1.15,2013-02-18 21:38:00,
2013-02-18 15:43:00,44.0,35.6,29.47,SW,214,0.0,1.0,72,0.00,,,0.00,Wunderground v.1.15,2013-02-18 21:43:00,
2013-02-18 15:48:00,43.6,35.5,29.47,SW,215,0.0,0.0,73,0.00,,,0.00,Wunderground v.1.15,2013-02-18 21:48:00,
2013-02-18 15:53:00,43.4,35.7,29.46,SW,215,0.0,0.0,74,0.00,,,0.00,Wunderground v.1.15,2013-02-18 21:53:00,
2013-02-18 16:03:00,42.5,35.5,29.47,SW,215,0.0,0.0,76,0.00,,,0.00,Wunderground v.1.15,2013-02-18 22:03:00,
2013-02-18 16:13:00,41.6,35.6,29.47,SW,218,0.0,0.0,79,0.00,,,0.00,Wunderground v.1.15,2013-02-18 22:13:00,
2013-02-18 16:18:00,41.2,35.5,29.47,SW,218,0.0,0.0,80,0.00,,,0.00,Wunderground v.1.15,2013-02-18 22:18:00,
2013-02-18 16:23:00,40.6,35.2,29.46,SW,218,0.0,0.0,81,0.00,,,0.00,Wunderground v.1.15,2013-02-18 22:23:00,
2013-02-18 16:28:00,40.2,35.1,29.46,SW,218,0.0,0.0,82,0.00,,,0.00,Wunderground v.1.15,2013-02-18 22:28:00,
2013-02-18 16:38:00,40.1,35.0,29.46,WSW,253,0.0,2.0,82,0.00,,,0.00,Wunderground v.1.15,2013-02-18 22:38:00,
2013-02-18 16:45:00,40.5,35.1,29.47,West,276,1.0,2.0,81,0.00,,,0.00,Wunderground v.1.15,2013-02-18 22:45:00,
2013-02-18 16:55:00,40.5,35.1,29.46,West,260,1.0,2.0,81,0.00,,,0.00,Wunderground v.1.15,2013-02-18 22:55:00,
2013-02-18 17:00:00,40.2,35.1,29.46,SSW,211,1.0,1.0,82,0.00,,,0.00,Wunderground v.1.15,2013-02-18 23:00:00,
2013-02-18 17:10:00,40.0,34.9,29.47,WSW,248,1.0,3.0,82,0.00,,,0.00,Wunderground v.1.15,2013-02-18 23:10:00,
2013-02-18 17:20:00,39.8,35.1,29.47,WSW,248,2.0,2.0,83,0.00,,,0.00,Wunderground v.1.15,2013-02-18 23:20:00,
2013-02-18 17:25:00,39.7,35.0,29.47,WSW,248,2.0,2.0,83,0.00,,,0.01,Wunderground v.1.15,2013-02-18 23:25:00,
2013-02-18 17:30:00,39.6,35.2,29.47,West,267,2.0,2.0,84,0.00,,,0.01,Wunderground v.1.15,2013-02-18 23:30:00,
2013-02-18 17:40:00,39.3,34.9,29.47,West,270,3.0,3.0,84,0.00,,,0.01,Wunderground v.1.15,2013-02-18 23:40:00,
2013-02-18 17:45:00,39.0,34.9,29.47,West,269,3.0,3.0,85,0.00,,,0.02,Wunderground v.1.15,2013-02-18 23:45:00,
2013-02-18 17:50:00,38.6,34.8,29.47,WNW,283,2.0,4.0,86,0.00,,,0.02,Wunderground v.1.15,2013-02-18 23:50:00,
2013-02-18 17:55:00,38.4,34.9,29.47,WNW,296,3.0,5.0,87,0.00,,,0.02,Wunderground v.1.15,2013-02-18 23:55:00,
2013-02-18 18:05:00,37.6,34.1,29.48,West,276,4.0,6.0,87,0.00,,,0.02,Wunderground v.1.15,2013-02-19 00:05:00,
2013-02-18 18:15:00,36.8,33.6,29.47,West,262,5.0,6.0,88,0.00,,,0.03,Wunderground v.1.15,2013-02-19 00:15:00,
2013-02-18 18:25:00,36.0,33.1,29.47,West,269,3.0,5.0,89,0.04,,,0.04,Wunderground v.1.15,2013-02-19 00:25:00,
2013-02-18 18:35:00,35.4,32.8,29.47,WNW,283,4.0,4.0,90,0.05,,,0.05,Wunderground v.1.15,2013-02-19 00:35:00,
2013-02-18 18:45:00,35.2,32.8,29.47,WNW,294,3.0,3.0,91,0.05,,,0.05,Wunderground v.1.15,2013-02-19 00:45:00,
2013-02-18 18:50:00,35.1,32.7,29.47,West,262,3.0,3.0,91,0.04,,,0.05,Wunderground v.1.15,2013-02-19 00:50:00,
2013-02-18 18:55:00,35.0,32.9,29.47,West,266,3.0,3.0,92,0.00,,,0.05,Wunderground v.1.15,2013-02-19 00:55:00,
2013-02-18 19:00:00,34.9,32.8,29.47,West,274,3.0,3.0,92,0.00,,,0.06,Wunderground v.1.15,2013-02-19 01:00:00,
2013-02-18 19:10:00,34.7,32.6,29.47,West,278,2.0,3.0,92,0.00,,,0.06,Wunderground v.1.15,2013-02-19 01:10:00,
2013-02-18 19:20:00,34.5,32.7,29.47,West,278,2.0,2.0,93,0.00,,,0.06,Wunderground v.1.15,2013-02-19 01:20:00,
2013-02-18 19:25:00,34.3,32.5,29.47,West,278,2.0,2.0,93,0.00,,,0.06,Wunderground v.1.15,2013-02-19 01:25:00,
2013-02-18 19:30:00,34.1,32.3,29.47,West,266,2.0,2.0,93,0.00,,,0.07,Wunderground v.1.15,2013-02-19 01:30:00,
2013-02-18 19:35:00,34.0,32.2,29.47,WSW,257,2.0,2.0,93,0.00,,,0.07,Wunderground v.1.15,2013-02-19 01:35:00,
2013-02-18 19:40:00,33.8,32.0,29.47,WSW,245,2.0,2.0,93,0.00,,,0.07,Wunderground v.1.15,2013-02-19 01:40:00,
2013-02-18 19:50:00,33.7,32.2,29.46,WSW,252,2.0,2.0,94,0.00,,,0.07,Wunderground v.1.15,2013-02-19 01:50:00,
2013-02-18 20:00:00,33.7,32.2,29.46,West,276,2.0,2.0,94,0.00,,,0.08,Wunderground v.1.15,2013-02-19 02:00:00,
2013-02-18 20:10:00,33.7,32.2,29.45,West,263,2.0,2.0,94,0.00,,,0.08,Wunderground v.1.15,2013-02-19 02:10:00,
2013-02-18 20:15:00,33.6,32.1,29.46,WNW,294,2.0,3.0,94,0.00,,,0.08,Wunderground v.1.15,2013-02-19 02:15:00,
2013-02-18 20:25:00,33.6,32.1,29.46,West,280,3.0,5.0,94,0.00,,,0.08,Wunderground v.1.15,2013-02-19 02:25:00,
2013-02-18 20:34:00,33.4,31.9,29.46,WSW,257,5.0,5.0,94,0.00,,,0.08,Wunderground v.1.15,2013-02-19 02:34:00,
2013-02-18 20:40:00,33.0,31.2,29.46,West,277,6.0,7.0,93,0.00,,,0.08,Wunderground v.1.15,2013-02-19 02:40:00,
2013-02-18 20:50:00,32.6,30.8,29.47,WNW,291,7.0,7.0,93,0.00,,,0.08,Wunderground v.1.15,2013-02-19 02:50:00,
2013-02-18 20:55:00,32.4,30.6,29.47,NNE,25,5.0,7.0,93,0.00,,,0.08,Wunderground v.1.15,2013-02-19 02:55:00,
2013-02-18 21:00:00,32.2,30.1,29.47,West,276,5.0,8.0,92,0.00,,,0.08,Wunderground v.1.15,2013-02-19 03:00:00,
2013-02-18 21:09:00,31.6,29.0,29.47,WNW,295,7.0,7.0,90,0.00,,,0.08,Wunderground v.1.15,2013-02-19 03:09:00,
2013-02-18 21:15:00,31.3,28.4,29.47,WNW,283,6.0,7.0,89,0.00,,,0.08,Wunderground v.1.15,2013-02-19 03:15:00,
2013-02-18 21:20:00,31.0,28.1,29.48,WSW,253,5.0,7.0,89,0.00,,,0.08,Wunderground v.1.15,2013-02-19 03:20:00,
2013-02-18 21:25:00,30.9,28.3,29.48,West,263,5.0,7.0,90,0.00,,,0.08,Wunderground v.1.15,2013-02-19 03:25:00,
2013-02-18 21:35:00,30.5,27.4,29.48,West,276,5.0,5.0,88,0.00,,,0.08,Wunderground v.1.15,2013-02-19 03:35:00,
2013-02-18 21:40:00,30.1,27.0,29.48,West,278,6.0,6.0,88,0.00,,,0.08,Wunderground v.1.15,2013-02-19 03:40:00,
2013-02-18 21:50:00,29.6,26.5,29.48,West,276,6.0,10.0,88,0.00,,,0.08,Wunderground v.1.15,2013-02-19 03:50:00,
2013-02-18 22:00:00,28.7,25.3,29.48,SW,228,8.0,8.0,87,0.00,,,0.08,Wunderground v.1.15,2013-02-19 04:00:00,
2013-02-18 22:09:00,28.3,25.5,29.49,WSW,248,5.0,6.0,89,0.00,,,0.08,Wunderground v.1.15,2013-02-19 04:09:00,
2013-02-18 22:14:00,28.2,25.4,29.50,West,260,5.0,6.0,89,0.00,,,0.08,Wunderground v.1.15,2013-02-19 04:14:00,
2013-02-18 22:19:00,27.6,24.5,29.50,WSW,248,7.0,8.0,88,0.00,,,0.08,Wunderground v.1.15,2013-02-19 04:19:00,
2013-02-18 22:24:00,27.0,24.2,29.50,West,263,7.0,8.0,89,0.00,,,0.08,Wunderground v.1.15,2013-02-19 04:24:00,
2013-02-18 22:35:00,26.2,23.4,29.50,West,264,8.0,8.0,89,0.00,,,0.08,Wunderground v.1.15,2013-02-19 04:35:00,
2013-02-18 22:44:00,25.6,22.5,29.51,West,273,8.0,15.0,88,0.00,,,0.08,Wunderground v.1.15,2013-02-19 04:44:00,
2013-02-18 22:50:00,25.5,22.2,29.51,SW,225,9.0,9.0,87,0.00,,,0.08,Wunderground v.1.15,2013-02-19 04:50:00,
2013-02-18 22:55:00,25.4,22.1,29.52,West,263,9.0,9.0,87,0.00,,,0.08,Wunderground v.1.15,2013-02-19 04:55:00,
2013-02-18 23:00:00,25.4,22.1,29.52,WNW,290,8.0,8.0,87,0.00,,,0.08,Wunderground v.1.15,2013-02-19 05:00:00,
2013-02-18 23:04:00,25.1,21.5,29.53,WSW,246,7.0,8.0,86,0.00,,,0.08,Wunderground v.1.15,2013-02-19 05:04:00,
2013-02-18 23:09:00,24.6,20.5,29.53,WSW,256,8.0,8.0,84,0.00,,,0.08,Wunderground v.1.15,2013-02-19 05:09:00,
2013-02-18 23:14:00,24.3,20.4,29.53,West,273,8.0,8.0,85,0.00,,,0.08,Wunderground v.1.15,2013-02-19 05:14:00,
2013-02-18 23:19:00,24.2,20.3,29.54,SW,224,7.0,10.0,85,0.00,,,0.08,Wunderground v.1.15,2013-02-19 05:19:00,
2013-02-18 23:24:00,23.9,20.0,29.54,SW,221,8.0,10.0,85,0.00,,,0.08,Wunderground v.1.15,2013-02-19 05:24:00,
2013-02-18 23:29:00,23.5,19.7,29.54,West,281,8.0,8.0,85,0.00,,,0.08,Wunderground v.1.15,2013-02-19 05:29:00,
2013-02-18 23:34:00,23.3,19.5,29.54,WSW,245,7.0,13.0,85,0.00,,,0.08,Wunderground v.1.15,2013-02-19 05:34:00,
2013-02-18 23:40:00,22.8,18.7,29.54,West,271,6.0,6.0,84,0.00,,,0.08,Wunderground v.1.15,2013-02-19 05:40:00,
2013-02-18 23:45:00,22.5,18.4,29.55,WSW,248,8.0,8.0,84,0.00,,,0.08,Wunderground v.1.15,2013-02-19 05:45:00,
2013-02-18 23:50:00,22.3,18.2,29.55,SSW,197,8.0,8.0,84,0.00,,,0.08,Wunderground v.1.15,2013-02-19 05:50:00,